This is the latest recevied weather packets stored in our database for station/object K0APR. If no packets are shown the sender has not sent any weather packets the latest 1 day(s).
| Time | Temp. | Humidity | Pressure | Rain* | Wind** | Luminosity | Snow |
|---|---|---|---|---|---|---|---|
| 1778035418 | 5.56° C | 54% | 1014.4 hPa | 0 mm | 1.79 m/s, 329° | 0 W/m² | - |
| 1778035114 | 5.56° C | 54% | 1014 hPa | 0 mm | 1.79 m/s, 328° | 0 W/m² | - |
| 1778034811 | 5.56° C | 54% | 1014 hPa | 0 mm | 1.34 m/s, 328° | 0 W/m² | - |
| 1778034508 | 5.56° C | 53% | 1014 hPa | 0 mm | 1.34 m/s, 326° | 0 W/m² | - |
| 1778034206 | 5.56° C | 53% | 1014 hPa | 0 mm | 1.34 m/s, 337° | 0 W/m² | - |
| 1778033904 | 5.56° C | 53% | 1013.7 hPa | 0 mm | 1.34 m/s, 324° | 0 W/m² | - |
| 1778033600 | 5.56° C | 52% | 1013.7 hPa | 0 mm | 1.34 m/s, 332° | 0 W/m² | - |
| 1778033297 | 5.56° C | 52% | 1013.7 hPa | 0 mm | 1.34 m/s, 327° | 0 W/m² | - |
| 1778032995 | 6.11° C | 52% | 1013.7 hPa | 0 mm | 1.34 m/s, 322° | 0 W/m² | - |
| 1778032693 | 6.11° C | 52% | 1013.7 hPa | 0 mm | 1.79 m/s, 350° | 0 W/m² | - |
| 1778032390 | 6.11° C | 52% | 1013.3 hPa | 0 mm | 1.79 m/s, 342° | 0 W/m² | - |
| 1778032086 | 6.11° C | 51% | 1013.7 hPa | 0 mm | 1.34 m/s, 323° | 0 W/m² | - |
| 1778031783 | 6.67° C | 51% | 1013.3 hPa | 0 mm | 2.24 m/s, 331° | 0 W/m² | - |
| 1778031480 | 6.67° C | 51% | 1013 hPa | 0 mm | 2.68 m/s, 336° | 0 W/m² | - |
| 1778031177 | 6.67° C | 50% | 1013.3 hPa | 0 mm | 3.13 m/s, 0° | 1 W/m² | - |
| 1778030873 | 6.67° C | 50% | 1013.3 hPa | 0 mm | 3.58 m/s, 314° | 3 W/m² | - |
| 1778030570 | 6.67° C | 49% | 1013.3 hPa | 0 mm | 3.58 m/s, 5° | 4 W/m² | - |
| 1778030268 | 7.22° C | 49% | 1013.3 hPa | 0 mm | 3.13 m/s, 320° | 6 W/m² | - |
| 1778029964 | 7.22° C | 48% | 1013.3 hPa | 0 mm | 4.02 m/s, 322° | 10 W/m² | - |
| 1778029663 | 7.22° C | 48% | 1013.3 hPa | 0 mm | 3.58 m/s, 343° | 15 W/m² | - |
| 1778029359 | 7.78° C | 47% | 1013 hPa | 0 mm | 4.02 m/s, 333° | 20 W/m² | - |
| 1778029057 | 7.78° C | 46% | 1013.3 hPa | 0 mm | 4.47 m/s, 302° | 23 W/m² | - |
| 1778028753 | 7.78° C | 45% | 1013 hPa | 0 mm | 3.58 m/s, 330° | 24 W/m² | - |
| 1778028449 | 7.78° C | 45% | 1013 hPa | 0 mm | 5.36 m/s, 339° | 26 W/m² | - |
| 1778028147 | 7.78° C | 45% | 1012.7 hPa | 0 mm | 6.71 m/s, 331° | 35 W/m² | - |
* Rain latest hour (hover to see other rain measurements)
** Current wind speed in m/s (hover to see current wind gust speed)